DELTA 1 DEB, 2118

Orbit data source: Space-Track

DELTA 1 DEB, 2118 is space debris in SSO originally from a launch on Thu, 03 Feb 1966 UTC launched from the Air Force Eastern Test Range (AFETR). Debris objects in space refer to the collection of defunct objects orbiting the Earth. Examples of debris include non-operational satellites, rocket bodies, and fragments generated from explosions, collisions, or faulty payload assembly.

Loading next visibility...
DELTA 1 DEB details
Identifier
2118, 1966-008D
Orbit
SSO
Last TLE update17 hours ago
Origin
Flag of USGSFC (US)
ManufacturerUnknown
MissionSpacecraft
Bus & MotorUnknown
Mass~1 kg wet, ~1 kg dry
Launch date (UTC)
1966-02-03 (59 years ago)
Launch vehicleUnknown
Launch site
Air Force Eastern Test Range (AFETR)
Object type
Payload
Rocket body
Debris
Shape & HBRBox + 1 Cable, 3.5 m
Radar Cross Section6.125 m², Small (<0.1 m²)

Expand to show TLE details & history

TLE from 17 hours ago
0 DELTA 1 DEB
1  2118U 66008D   25037.38593106  .00001416  00000-0  37322-3 0  9996
2  2118  97.9848 190.5889 0127099 303.6857  55.2269 14.45780595 84817
Epoch: 2025-02-06T09:15Z
Definitive object data (Epoch: 2025-02-06T09:15:44.443Z)
Latitude-0.00005°
Longitude-85.10954°
Altitude691.616 km
Speed7.537 km/s
True Right ascension12h 42m 21s
True Declination0° 00' 00"
Sunlit
Object was in full shadow at TLE epoch
Visualization TLE readout
Latitude45.16358°
Longitude-92.51613°
Altitude767.258 km
Speed7.464 km/s
Apparent Right ascension14h 11m 30s
Apparent Declination6° 27' 38"
Sunlit
Object is in full shadow
Visualization observer readout
Local Sidereal Time04:14:12
Azimuth38.619° NE
Elevation-35.68°
Doppler factor1
Orbital elements
Apogee altitude826.98 km
Perigee altitude646.126 km
Semi-major axis7,114.69 km
Eccentricity0.0127099
Inclination97.9848°
RAAN190.5889°
Arg. of periapsis303.6857°
True anomaly56.4341°
Mean anomaly55.2269°
Eccentric anomaly55.82941°
Mean motion3.61667 °/min
BSTAR0.00037322
Orbital period99.54 mins
Loading maneuver chart data...
Loading historical data...
Loading historical data...
Loading historical data...
Loading historical data...
Loading historical data...
Loading historical data...
Loading historical data...

DELTA 1 DEB Visibility forecast

Observer location: undefined°, undefined

Span
Click to sort rows by Start time (UTC) header in descending order
Start Az.
Max El. time (UTC)
Max El. Az.
Max El.
End time (UTC)
End Az.
4 mins2025-02-07 08:41:52.242Z85.078° E2025-02-07 08:43:52.242Z59.18° ENE14.245°2025-02-07 08:45:52.242Z34.479° NE
8 mins2025-02-07 10:17:52.242Z178.194° S2025-02-07 10:21:52.242Z283.639° WNW42.392°2025-02-07 10:25:52.242Z340.72° N
8 mins2025-02-07 22:23:52.242Z32.951° NE2025-02-07 22:27:52.242Z103.918° ESE34.271°2025-02-07 22:31:52.242Z165.242° S
7 mins2025-02-08 00:02:52.242Z336.652° NNW2025-02-08 00:05:52.242Z294.107° NW22.756°2025-02-08 00:09:52.242Z242.954° WSW
|